Theta_e
317 317 317 318 318 321 324 325 326 325 323 321 320 320 322 324 322 322 321 322 324 325 326 327 328 327 328 326 328 334 335 336 339 339 340 338 336 338 337 335 335 332 332 334 333 333 332 324 319 316 311 310 309 309 309 314 325 330 332 333 334 335 335 336 335 335 334 334 333 333 332 332 332 329 326 322 317 319 319 313 314 317 315 312 312 312 312 312 311 311 312 314 316 318 316 314 312
317 317 317 317 319 323 325 324 325 323 320 319 320 321 321 322 322 322 322 323 324 324 326 327 326 325 326 326 326 333 336 336 338 339 338 337 338 338 336 334 333 332 332 333 333 333 330 323 320 317 311 310 309 309 308 314 324 329 331 333 334 334 335 335 335 335 333 332 330 329 327 327 328 325 321 317 318 323 321 315 314 316 313 312 313 312 312 312 312 311 311 312 313 312 311 310 310
317 317 317 320 321 324 325 324 324 322 319 318 319 321 321 321 323 324 324 324 324 325 327 327 326 325 326 326 326 334 336 336 338 337 337 338 338 338 337 334 332 333 332 333 334 333 329 322 320 316 312 310 309 309 309 312 319 326 329 330 333 334 334 334 334 334 332 330 328 326 323 321 323 322 318 317 322 323 318 316 315 312 310 314 316 312 311 312 311 311 311 311 311 310 310 311 311
317 317 318 323 324 323 325 326 326 324 319 318 318 321 322 323 324 325 325 326 325 325 325 325 326 325 326 326 328 335 336 336 337 336 337 337 336 338 337 333 334 334 333 335 335 333 329 322 320 316 312 310 310 309 309 314 320 324 325 327 333 334 333 333 332 331 329 326 324 321 317 316 318 320 320 320 321 319 318 320 318 315 311 312 315 312 310 311 311 311 311 311 311 310 311 311 311
317 317 318 322 325 325 325 326 327 325 320 318 318 320 323 324 325 323 324 325 325 325 324 325 326 323 324 328 330 335 336 335 335 336 338 336 335 337 334 334 336 335 335 336 335 333 328 322 319 317 313 311 310 310 309 313 318 321 321 322 330 332 331 331 329 329 327 323 321 317 315 313 314 319 321 318 317 317 319 320 318 316 311 310 313 313 311 309 310 311 311 311 310 311 311 311 311
317 318 317 320 324 325 325 324 324 322 320 321 319 320 323 323 324 322 323 323 324 325 324 326 325 324 327 328 331 335 337 335 335 338 338 334 332 333 333 335 337 336 336 336 334 333 326 321 320 317 315 312 310 311 310 311 312 315 317 317 326 331 329 329 328 327 324 320 318 315 313 312 312 317 318 315 317 320 318 318 320 316 311 312 313 314 314 310 310 310 311 311 311 311 311 311 312
319 321 320 321 323 323 325 324 324 322 320 321 320 321 323 323 323 322 323 322 323 323 323 327 323 325 328 326 330 335 337 336 337 339 337 333 329 330 332 335 338 337 337 336 334 332 324 320 320 318 317 314 312 311 310 311 311 315 320 317 321 328 328 329 328 324 320 318 315 312 312 311 311 313 315 317 318 319 318 318 320 314 309 310 310 312 312 310 311 310 310 310 310 311 311 312 312
319 323 322 323 326 324 325 326 324 322 320 320 321 322 322 323 323 322 322 321 322 321 322 325 323 323 324 328 333 333 337 338 338 338 335 331 327 330 334 336 338 338 337 335 334 331 323 320 321 320 319 317 315 313 311 311 312 316 323 319 315 320 323 326 325 321 318 315 313 311 312 311 311 313 315 319 320 320 319 319 319 312 308 308 308 309 309 310 310 309 310 310 310 311 312 313 314
319 322 322 325 328 324 323 326 324 321 320 320 320 321 322 322 321 321 321 320 321 321 323 323 323 322 322 332 335 331 335 338 337 336 334 330 327 332 336 336 337 339 338 335 333 329 322 320 321 321 321 320 318 315 312 311 311 313 318 317 312 313 315 317 318 317 315 313 312 311 312 312 315 314 313 319 321 320 319 318 316 309 307 308 309 310 310 311 311 311 311 310 311 312 313 314 315
320 321 322 324 326 324 322 323 323 321 321 320 320 321 322 322 321 321 321 320 320 321 323 322 322 320 322 334 336 333 333 335 335 334 333 329 328 332 335 336 337 339 338 335 332 327 321 320 321 322 322 322 321 318 314 311 311 311 312 312 311 312 312 312 313 312 312 311 311 310 310 312 314 312 312 318 319 319 320 318 313 308 308 309 310 312 313 313 313 313 312 312 312 312 313 315 316
321 320 322 324 323 323 322 322 323 322 320 320 320 320 322 321 321 322 320 320 320 322 323 320 321 319 324 334 337 336 332 333 334 332 332 329 329 333 335 336 336 337 337 335 331 327 322 320 321 322 323 323 323 320 317 313 311 311 311 311 311 312 312 312 312 311 311 311 310 310 310 310 311 311 313 316 317 319 320 318 311 308 309 311 312 313 314 314 314 314 313 313 313 313 313 314 316
325 323 323 324 324 324 323 323 322 321 320 320 320 320 321 321 321 322 320 320 319 322 321 319 321 318 323 333 337 335 331 333 333 331 331 330 331 335 336 336 336 337 337 335 332 328 323 321 321 321 322 324 324 323 321 316 313 314 314 314 314 313 314 313 313 312 310 309 309 309 309 309 309 309 311 312 313 316 317 315 310 309 311 313 314 315 315 315 314 314 314 314 313 313 313 314 316
324 325 324 324 325 325 324 324 322 322 321 319 320 320 320 321 321 322 319 319 318 321 320 319 321 318 326 336 337 333 332 334 333 330 331 332 334 336 336 336 337 337 337 336 334 330 326 322 322 321 321 322 324 324 323 320 316 317 318 318 318 317 316 315 315 313 311 309 309 308 308 308 309 309 309 310 311 312 311 310 310 311 313 315 315 316 316 316 315 315 314 314 314 313 313 314 315
322 323 324 325 326 326 325 324 322 321 320 320 320 319 320 321 321 321 319 319 318 320 320 319 320 319 327 335 336 334 333 334 332 329 331 333 335 336 335 336 337 337 336 336 335 332 328 324 324 323 321 321 322 324 324 323 320 319 320 320 321 321 320 319 318 315 313 310 309 308 307 308 308 308 308 308 308 309 308 310 313 314 315 316 316 317 317 317 316 316 316 315 315 314 314 314 314
322 323 325 327 326 324 325 324 323 321 321 321 320 320 320 320 320 320 319 319 319 320 320 319 319 321 326 330 334 335 333 332 331 329 332 333 335 335 335 335 336 336 336 336 335 334 330 328 328 326 323 322 321 322 324 324 324 323 321 321 322 322 323 323 322 319 316 312 310 309 307 307 307 308 308 307 307 307 309 312 315 316 317 317 317 318 318 318 318 317 316 316 316 316 316 316 315
321 322 326 325 325 324 323 324 323 322 321 320 319 320 319 319 320 319 318 319 319 319 319 318 318 323 331 332 331 334 332 330 330 329 333 334 334 335 335 335 335 335 335 335 335 335 334 332 332 330 325 323 322 321 322 323 324 325 323 321 322 322 323 323 324 323 320 316 313 311 310 307 306 307 307 306 306 308 311 315 317 317 317 317 318 319 319 319 319 318 318 318 319 319 319 318 318
319 323 326 323 324 324 322 322 322 321 320 320 319 319 319 319 319 318 318 318 318 317 319 320 319 322 330 335 333 332 330 328 328 329 332 334 333 334 335 335 334 335 334 335 335 335 335 334 334 333 328 325 327 323 322 323 323 324 325 324 323 322 323 323 324 324 323 321 318 315 313 310 308 307 307 307 308 312 315 317 318 318 318 318 319 320 320 321 320 319 319 320 320 320 320 320 320
320 325 326 322 324 323 322 321 320 321 320 319 319 319 319 319 318 318 317 318 318 317 319 320 320 319 323 332 335 331 329 327 328 328 331 332 332 333 334 334 334 334 334 334 335 334 335 335 334 335 331 328 330 328 325 325 324 323 324 325 325 324 325 324 324 324 324 324 323 320 317 315 314 311 309 308 310 314 317 318 318 318 319 319 320 320 321 322 321 321 320 321 321 321 321 321 321
321 325 324 324 324 321 320 319 318 319 319 319 319 319 319 319 317 318 317 317 317 317 318 319 320 320 319 326 330 328 328 327 327 327 328 330 330 331 333 334 334 334 334 334 334 334 334 335 334 335 333 331 331 331 328 328 328 324 323 323 325 325 326 325 325 325 324 324 324 324 323 320 318 316 314 312 312 315 318 319 319 319 320 320 320 320 321 322 322 322 322 322 321 322 321 321 321
320 323 324 324 322 319 318 317 318 318 319 319 319 319 319 318 318 318 317 317 317 316 317 318 320 321 318 320 322 324 327 327 327 327 327 327 329 330 332 332 333 333 334 333 334 334 333 334 334 335 334 332 332 332 329 329 330 328 324 323 324 324 325 326 326 326 325 325 324 326 325 322 321 320 318 316 315 316 318 319 320 320 320 320 320 321 321 322 322 322 322 322 322 322 321 321 321
320 322 323 323 320 318 318 317 317 318 319 319 319 319 318 317 318 317 316 317 316 316 317 316 319 320 318 317 317 320 323 326 327 328 327 327 329 330 331 332 333 333 333 333 333 333 333 332 333 334 334 332 332 332 330 329 330 329 326 323 324 324 325 325 326 327 327 326 325 326 326 323 323 324 322 320 318 316 317 318 319 320 320 320 321 321 322 322 322 322 322 322 322 322 322 322 322
320 321 320 320 319 318 316 316 317 318 318 319 318 318 318 317 317 317 316 317 316 316 317 317 317 319 318 316 316 318 319 323 326 328 328 327 328 329 331 333 333 334 335 333 332 332 332 332 332 333 333 332 331 331 331 330 330 329 327 325 325 325 325 325 326 327 327 327 327 327 326 323 324 326 325 324 323 320 319 318 318 319 320 320 320 321 321 321 322 322 322 322 322 322 322 322 321
320 320 318 318 319 317 316 316 316 317 318 319 318 317 318 317 316 317 316 317 316 316 317 317 318 319 319 317 316 316 316 319 322 324 326 326 327 328 330 334 334 333 334 332 331 332 333 332 331 331 331 330 330 330 330 330 330 329 328 328 327 326 326 326 326 327 327 328 328 328 328 326 326 327 327 326 326 326 324 322 320 319 319 319 319 320 320 320 321 321 321 321 321 321 321 321 321
319 319 318 317 317 316 316 316 316 317 317 317 317 317 317 317 316 317 317 317 316 316 316 316 318 319 320 319 316 316 315 316 317 320 325 327 327 328 330 333 335 334 333 333 332 333 332 332 331 329 329 329 329 329 329 329 330 330 329 329 328 327 327 327 327 328 328 328 328 328 329 328 328 328 328 328 327 328 327 326 324 323 321 320 319 319 319 319 319 320 320 320 320 320 321 321 321
318 318 317 317 316 315 315 315 315 316 316 316 317 317 317 317 316 316 317 317 316 316 316 315 317 320 321 319 316 316 315 316 316 319 326 331 332 332 333 335 336 335 334 333 333 333 332 330 330 329 328 328 328 328 329 329 329 330 330 329 328 328 328 328 328 328 328 328 328 328 329 329 329 329 329 329 329 328 328 327 327 326 325 323 322 320 320 319 319 319 319 319 319 319 320 320 320
317 318 317 316 315 314 314 315 315 315 316 316 316 317 316 316 316 316 317 316 316 316 316 314 315 319 321 320 317 315 315 315 316 317 321 328 333 335 335 335 337 336 335 334 333 332 332 329 328 328 328 327 327 328 328 329 329 330 330 329 328 328 328 329 329 328 328 329 328 328 329 329 329 330 330 330 330 330 329 329 328 328 327 327 326 324 323 321 320 320 320 319 319 319 319 319 320
317 317 317 316 315 314 315 315 314 315 315 315 317 317 316 315 316 317 317 316 316 315 315 315 314 315 318 319 318 316 315 314 315 316 317 322 330 334 336 335 336 337 336 335 334 332 331 329 328 328 327 327 327 327 328 328 329 329 329 329 329 328 328 329 329 329 328 328 328 328 328 329 330 330 330 330 330 330 330 330 330 329 329 328 327 327 325 324 324 323 322 321 320 320 320 320 320
318 317 316 316 316 315 316 315 315 315 315 315 316 316 315 315 316 316 317 316 316 316 315 315 315 315 316 317 318 318 318 317 316 317 317 318 322 328 332 332 333 335 336 336 334 332 331 329 327 327 327 326 327 327 327 327 328 328 329 329 328 327 327 327 328 328 328 327 328 328 327 327 329 330 330 330 330 330 330 330 330 330 330 330 329 328 327 327 326 326 325 324 323 322 322 321 321
317 317 317 315 316 315 316 315 315 316 316 315 316 316 316 316 317 316 316 317 315 316 315 315 315 315 317 318 318 318 318 320 320 317 316 316 316 318 322 323 324 328 332 335 334 332 331 329 326 325 324 324 325 326 326 326 326 327 327 328 327 327 326 325 324 325 326 326 326 327 326 326 327 329 330 330 330 330 330 330 330 330 330 330 329 329 328 328 327 327 326 326 325 324 324 324 323
317 317 317 316 316 316 316 316 315 316 315 315 315 316 318 317 317 316 316 316 315 315 316 316 315 314 317 319 320 319 317 320 320 316 315 315 315 315 316 318 319 321 325 330 332 331 330 328 324 323 322 321 321 323 324 325 325 325 326 326 326 326 325 324 322 321 322 324 324 324 324 324 325 327 328 330 330 330 330 329 328 328 328 328 328 328 328 328 328 327 327 326 326 326 325 325 325
317 316 317 318 317 316 317 316 315 316 315 314 315 316 318 318 316 316 316 316 315 315 316 316 316 315 316 319 321 321 317 316 316 314 315 314 314 314 315 317 317 318 319 323 326 326 326 325 322 319 319 319 318 320 321 322 323 324 324 325 324 324 324 323 323 321 319 321 323 323 322 322 324 325 327 328 329 328 328 328 327 326 327 328 328 327 328 328 328 327 327 326 325 325 325 325 324
316 316 317 319 318 317 317 315 315 316 315 314 315 316 317 317 315 315 315 315 315 315 315 316 316 316 317 319 320 320 318 316 314 314 314 314 315 314 314 315 316 316 316 317 318 319 321 322 320 318 318 318 317 317 318 320 321 322 323 323 323 323 322 321 321 321 320 319 320 320 320 321 321 323 325 327 327 326 327 327 326 326 326 327 327 327 326 326 327 326 326 325 324 324 325 324 324
316 317 317 319 318 317 317 316 315 315 315 314 315 316 317 316 314 314 315 315 314 315 315 315 316 317 317 318 318 318 317 317 315 314 314 314 314 314 314 314 314 315 315 315 315 316 317 318 318 317 316 316 316 316 316 317 319 320 321 321 321 320 319 319 318 319 319 319 318 317 317 318 318 320 321 324 325 327 327 327 327 327 327 327 326 325 325 325 325 325 325 324 324 324 325 324 323
316 316 317 318 317 316 316 316 316 315 315 315 315 316 316 316 314 314 314 314 314 314 315 315 315 316 316 317 317 316 317 316 315 314 314 314 314 314 314 314 314 314 314 314 314 314 315 316 316 315 316 315 316 316 316 316 317 318 318 318 318 318 318 317 316 317 317 317 317 316 316 316 315 316 317 319 321 324 326 326 327 327 328 328 326 325 323 323 324 324 324 324 325 326 326 324 323
316 316 316 317 316 316 317 316 316 316 316 316 316 316 316 316 315 313 313 314 314 314 314 315 315 315 316 316 316 316 316 316 315 314 314 314 315 315 314 314 314 314 314 314 314 314 314 315 315 315 316 315 316 317 316 316 316 316 317 317 318 319 318 317 317 317 316 315 315 316 317 317 316 315 316 317 317 319 321 322 323 325 326 326 326 325 323 323 324 324 325 325 325 326 327 326 325
317 318 317 317 316 315 316 316 315 316 316 316 316 315 315 315 316 314 314 314 314 314 315 315 315 315 315 316 316 316 316 316 315 315 315 314 315 315 315 314 314 314 314 314 314 314 314 314 314 314 315 315 316 316 316 316 316 316 316 316 317 317 317 318 318 318 318 317 316 316 316 317 317 317 317 319 318 316 315 317 320 322 323 325 325 325 323 323 324 326 327 327 327 327 327 327 326
317 317 317 319 319 315 315 315 314 314 315 316 316 316 316 316 317 316 315 314 314 315 315 315 315 316 315 315 316 316 316 316 316 315 315 315 315 315 315 315 315 315 314 314 314 314 314 314 314 314 314 315 315 315 316 316 315 315 315 315 316 316 317 318 318 319 319 318 316 317 317 318 321 322 322 322 319 316 316 318 319 320 321 323 324 324 322 323 325 327 328 327 328 329 328 326 327
316 317 316 318 320 316 314 315 314 314 315 316 316 316 316 316 317 317 316 314 314 315 315 315 315 315 316 315 315 316 316 316 316 316 316 315 315 314 314 315 315 315 314 315 315 314 314 314 314 315 314 314 314 314 314 315 315 315 315 316 316 317 318 318 319 319 319 318 317 318 319 320 323 324 324 322 320 320 323 324 322 320 320 322 325 326 325 325 324 324 325 325 326 328 329 328 327
317 318 318 317 319 316 314 314 314 314 315 316 317 318 317 317 317 316 315 315 315 316 316 316 316 315 316 316 316 316 316 317 317 316 316 315 315 314 314 314 315 315 315 315 315 315 314 315 314 314 315 315 314 315 315 314 314 315 316 316 317 318 319 319 319 318 318 318 317 317 317 318 320 320 320 318 318 321 324 326 323 321 322 325 329 330 329 326 324 322 322 323 324 326 327 326 324
317 318 317 318 319 317 316 315 314 314 313 315 317 317 316 315 317 316 315 316 316 316 317 316 316 316 315 316 316 316 316 317 318 317 316 316 315 315 315 314 314 314 315 315 315 315 314 314 314 315 315 315 315 315 315 315 315 316 317 318 319 319 320 319 318 317 317 317 316 316 316 317 317 318 319 319 319 320 322 323 322 321 322 325 328 327 326 323 322 322 324 325 326 327 326 324 322
318 320 319 320 320 318 318 315 313 313 314 315 315 315 317 316 315 316 315 316 316 315 317 317 317 316 316 316 317 317 318 318 318 318 317 316 315 316 315 315 314 314 314 315 315 315 315 314 315 314 314 315 315 315 315 315 316 317 317 319 320 319 319 318 317 316 316 316 316 316 317 319 321 323 324 324 323 323 324 324 325 324 323 323 323 323 325 324 323 323 324 326 326 327 325 324 324
317 321 320 319 319 319 319 316 315 315 316 318 315 316 322 321 315 315 315 316 316 316 317 317 318 317 316 317 317 317 318 318 318 317 317 316 315 315 315 315 315 314 314 315 314 314 315 315 315 315 314 314 314 315 315 315 315 316 316 316 317 317 316 317 316 316 316 316 315 316 317 320 323 325 326 326 325 325 326 326 326 324 323 323 323 324 328 328 325 322 322 324 324 325 325 325 326
314 321 322 319 320 322 320 319 319 317 317 318 316 316 321 322 318 317 318 318 317 317 316 315 316 317 316 316 316 316 317 317 316 316 316 315 315 315 315 315 315 315 315 314 315 314 314 315 315 314 314 314 314 314 314 314 315 314 314 315 315 315 315 315 315 315 316 315 315 315 316 317 319 320 321 322 323 323 324 325 325 323 324 326 327 327 326 324 322 321 323 325 325 325 326 325 324
317 324 324 322 322 323 323 322 320 318 318 316 316 317 318 320 321 319 318 317 316 318 318 316 314 315 316 315 315 315 315 315 315 315 315 314 314 314 314 315 315 315 315 315 315 315 315 315 314 314 315 314 314 314 314 314 314 314 314 315 314 314 314 314 315 315 315 315 315 315 315 316 316 317 317 318 320 322 322 323 324 323 324 325 325 324 323 322 322 322 323 323 323 324 324 322 322
320 324 323 322 323 324 323 322 319 318 318 318 318 317 316 319 321 318 317 316 316 317 318 316 314 314 315 315 315 315 314 315 314 314 314 314 313 313 313 313 314 314 314 314 314 314 315 315 315 315 314 314 314 314 315 315 315 314 314 314 314 313 313 314 314 314 314 315 315 315 315 316 316 316 316 317 318 319 320 320 321 322 323 323 322 322 323 324 324 322 323 323 324 325 325 324 322
319 320 322 323 324 323 321 321 320 318 318 321 321 317 316 320 321 317 317 317 317 317 316 316 314 315 316 315 315 315 314 314 313 313 313 313 313 313 313 313 313 314 314 314 314 314 314 314 314 315 314 315 315 315 315 314 314 313 313 313 313 313 313 314 314 314 315 315 315 316 315 316 316 315 315 315 315 316 316 317 317 319 320 321 322 322 323 323 322 323 325 325 325 324 324 324 322
317 320 322 322 321 321 319 320 319 318 320 322 321 318 315 318 321 318 317 317 317 317 317 318 315 315 316 315 315 314 314 313 313 313 312 312 313 312 312 312 312 313 313 313 313 313 313 313 313 313 313 314 314 314 313 313 312 312 312 313 313 314 314 314 314 315 315 315 315 315 315 315 314 314 314 314 314 314 314 315 315 315 316 317 318 319 320 321 321 322 324 324 323 322 321 321 321
319 321 321 320 319 318 317 318 317 319 321 319 317 319 317 318 319 318 316 316 316 317 318 319 316 315 315 315 314 314 314 314 313 313 313 312 312 312 312 312 312 312 312 312 312 312 312 312 312 312 312 313 312 312 312 312 312 312 313 314 314 314 314 314 315 315 315 315 315 315 315 314 314 314 314 314 314 314 314 313 314 314 314 314 314 315 316 317 319 320 320 321 320 320 321 322 322
320 320 319 320 320 317 317 318 318 319 318 314 313 317 318 317 316 314 315 315 315 316 316 317 316 314 315 315 314 314 314 315 314 314 313 312 312 311 311 311 311 312 312 312 312 312 312 312 312 312 312 312 312 312 312 312 312 313 314 314 315 314 315 315 315 315 315 315 315 315 314 314 314 314 314 314 314 314 314 313 313 313 313 313 313 313 313 314 314 315 315 316 316 316 318 320 320
319 318 318 321 320 316 316 318 318 318 316 313 313 315 317 317 315 315 316 313 313 314 314 315 315 314 315 314 314 314 314 315 315 315 314 314 313 312 311 311 311 312 313 313 313 312 312 312 312 312 313 313 313 313 313 313 313 314 314 315 315 315 315 315 315 315 315 314 314 315 314 314 314 314 314 314 314 313 313 313 313 313 313 312 312 312 312 312 312 313 313 313 314 314 315 316 316
317 318 319 320 319 318 318 318 321 322 317 313 312 316 320 319 317 316 314 311 313 314 313 313 313 313 313 313 314 314 314 315 315 315 315 315 314 313 313 313 313 314 314 314 314 313 313 313 313 313 313 313 313 313 313 314 314 315 315 315 315 315 315 315 315 315 314 314 314 314 314 314 314 314 314 313 313 313 313 313 313 313 313 312 312 312 312 312 312 312 312 312 313 313 314 314 314
317 318 320 319 320 322 320 316 320 322 319 316 314 318 321 318 317 316 312 311 311 311 311 311 311 311 312 313 314 314 315 315 315 315 315 315 315 315 314 314 315 315 315 314 314 314 314 314 314 314 314 314 314 314 314 315 315 315 315 315 315 314 314 314 315 314 314 314 314 314 314 314 314 314 314 313 313 313 313 313 313 313 313 313 313 313 312 312 312 312 312 311 311 311 312 312 312
317 318 319 319 320 324 320 315 314 315 318 319 317 318 318 315 316 317 314 313 312 311 310 310 311 311 311 313 314 315 315 315 315 315 315 316 316 315 315 315 315 315 315 315 314 314 314 314 315 315 315 315 315 315 315 315 315 315 314 314 314 314 314 314 314 314 314 314 314 314 314 314 314 313 313 313 313 313 313 313 313 313 313 313 313 313 313 313 312 312 312 312 311 311 311 311 311
319 320 318 316 317 320 318 314 315 314 314 316 317 317 317 315 317 317 315 314 313 313 311 310 311 312 313 315 315 315 315 314 315 315 315 316 316 315 315 315 315 315 315 315 315 315 315 315 315 315 315 315 315 315 315 314 314 314 314 314 314 314 314 314 314 314 314 314 314 314 314 313 313 313 313 313 312 313 312 312 312 312 312 312 312 312 312 312 312 312 312 311 311 311 311 311 311
315 316 315 316 317 318 315 313 316 318 314 315 318 317 315 316 316 316 316 315 315 314 312 311 313 313 314 316 316 315 315 314 314 315 315 316 316 315 316 315 315 316 315 315 315 315 315 315 315 315 314 315 314 314 314 314 314 314 314 314 314 314 314 314 314 314 314 314 313 313 313 312 312 312 312 312 312 312 311 311 311 311 311 311 311 310 310 310 310 310 310 310 310 310 310 310 310
313 313 313 316 317 317 317 315 316 319 316 315 317 317 320 322 318 317 318 316 315 314 313 312 311 313 316 316 316 315 314 314 314 314 315 315 316 316 316 316 315 315 315 315 314 314 314 314 314 314 314 314 314 314 314 314 314 314 314 314 314 314 314 314 314 313 313 313 312 312 312 312 311 311 311 311 310 310 310 309 309 309 308 308 307 307 307 307 307 306 306 306 306 306 306 306 306
313 314 314 314 314 314 317 317 316 317 317 316 315 316 325 326 317 315 316 316 317 315 315 313 311 313 317 316 315 314 314 314 314 314 314 315 315 315 315 315 314 314 314 314 314 314 314 314 314 314 314 314 314 314 314 314 314 314 314 314 313 314 313 313 313 313 312 312 312 311 311 311 310 310 309 308 308 307 307 306 306 305 305 304 304 304 303 303 303 302 302 302 302 302 302 302 302
314 314 314 314 314 315 316 317 316 315 316 318 315 316 326 325 316 316 316 316 318 314 313 313 311 314 317 315 315 314 313 314 313 314 314 314 314 314 314 314 313 314 314 313 314 314 314 314 314 314 314 314 314 314 314 313 313 313 313 313 313 313 313 312 312 312 311 311 311 310 309 308 308 307 306 305 305 304 304 303 303 302 302 301 301 301 301 300 300 300 300 299 299 299 299 299 299
Wind_Speed
2 2 2 1 2 4 5 4 5 2 2 2 3 3 3 4 4 5 6 4 4 7 8 9 9 9 6 3 6 14 14 9 3 2 7 14 19 17 16 16 14 14 12 12 11 10 9 9 10 12 13 12 11 11 13 17 22 20 16 15 13 13 12 12 12 11 9 8 7 5 4 6 8 8 9 9 11 13 13 14 14 14 15 16 16 15 16 15 16 16 16 15 13 11 10 11 11
3 3 3 0 3 4 5 2 2 2 4 2 4 4 4 3 3 6 5 5 7 8 9 9 7 6 3 1 5 12 16 15 14 18 21 22 20 16 16 16 15 14 12 12 11 10 9 9 10 12 14 12 11 11 13 17 20 19 17 16 14 13 12 11 10 9 7 6 5 5 5 6 7 9 10 10 12 14 13 13 13 13 15 15 14 15 15 14 15 15 15 15 14 13 13 13 13
4 3 5 0 4 5 6 2 2 4 2 3 4 3 5 4 4 7 8 11 13 12 10 7 5 5 6 3 8 10 10 14 20 26 26 20 20 18 16 16 15 14 13 12 11 10 10 10 10 13 14 13 12 11 13 16 16 16 16 16 15 14 12 11 9 8 6 5 4 4 5 7 8 9 10 11 13 13 13 14 13 13 14 14 13 14 14 14 14 14 14 14 13 13 14 14 14
4 3 5 1 6 5 4 2 2 4 1 3 3 3 5 6 8 10 12 14 13 11 8 5 3 5 7 6 9 11 12 12 16 22 22 17 20 21 19 18 15 15 14 12 11 10 10 9 10 13 14 13 14 13 13 14 14 14 14 15 17 16 13 11 9 6 5 6 5 6 7 8 8 8 10 11 13 13 14 13 12 13 14 13 13 13 13 13 13 13 13 13 13 13 14 14 14
4 3 4 2 4 3 2 1 3 2 2 1 4 4 6 9 9 9 12 13 10 8 5 4 3 5 6 8 8 7 10 12 13 17 18 17 20 22 20 18 15 15 13 12 11 10 10 10 11 13 15 14 14 14 14 13 13 13 12 14 16 16 14 11 8 5 4 5 6 7 8 9 8 8 9 10 12 13 13 13 12 13 14 13 12 12 12 12 13 13 13 13 13 13 14 14 14
5 2 2 3 4 3 2 2 4 0 3 3 4 4 7 10 11 12 13 12 8 6 4 3 3 5 7 8 9 8 9 12 12 12 18 20 21 23 20 18 15 13 13 12 11 10 11 10 11 14 15 15 15 15 15 14 13 11 12 13 16 16 14 11 6 4 4 5 5 6 7 9 9 9 9 10 11 12 12 13 13 13 12 12 12 12 12 12 13 13 13 13 13 13 13 13 13
5 2 2 3 3 3 1 3 4 2 4 5 4 3 9 12 14 14 12 8 6 5 3 3 3 3 6 8 9 11 12 13 13 11 17 23 22 22 20 17 14 13 12 11 11 11 11 10 11 14 16 16 16 15 15 15 14 13 13 13 14 15 14 11 6 3 5 6 5 7 8 9 9 8 9 10 11 11 11 12 12 12 12 11 11 12 12 12 12 13 13 12 12 13 13 13 13
4 3 4 2 2 1 2 5 2 4 2 4 5 5 11 14 14 12 7 7 5 6 5 3 2 1 4 9 8 9 13 12 14 13 17 25 24 22 19 16 14 12 12 11 11 11 11 10 11 14 15 16 16 16 15 15 16 16 15 13 12 12 12 10 6 4 6 6 7 8 9 9 9 8 9 10 11 11 10 11 11 12 12 11 11 12 13 13 12 13 12 11 11 12 13 13 13
3 4 3 1 2 2 2 5 1 5 3 3 5 7 14 14 13 11 6 8 7 8 9 5 2 1 5 13 11 9 12 10 12 14 19 26 25 22 19 16 14 14 12 11 11 12 12 11 11 13 15 16 16 16 15 15 15 16 16 14 14 13 11 9 7 6 7 8 8 9 8 8 8 8 9 10 11 10 10 10 11 11 11 11 12 12 12 12 12 12 11 10 11 11 12 13 12
5 7 3 2 2 2 3 4 2 5 5 5 6 8 11 11 12 11 8 9 9 9 9 6 2 0 5 13 12 8 11 11 12 15 21 26 25 21 19 15 13 15 13 11 12 12 11 11 11 12 14 14 15 15 15 15 15 15 16 15 14 13 13 12 10 9 9 9 10 10 9 8 9 10 9 9 10 10 10 10 11 11 11 11 12 12 12 11 11 11 11 10 10 11 11 12 12
6 7 4 2 3 3 4 3 4 4 5 6 7 8 7 8 9 10 10 10 10 10 8 7 3 2 5 11 10 6 10 12 13 18 22 25 24 20 19 16 14 15 14 12 12 11 12 11 11 11 12 13 13 14 14 15 15 15 15 15 14 13 13 12 11 11 10 10 10 10 10 10 11 11 10 10 10 10 10 10 11 11 11 11 11 12 11 11 10 10 10 10 9 9 10 10 11
4 4 3 2 4 3 2 2 6 5 6 4 5 7 7 7 6 7 10 9 9 11 8 6 4 5 4 8 8 7 10 13 15 19 22 23 22 19 18 16 14 14 13 13 13 12 12 11 11 10 10 11 12 13 13 14 14 15 15 15 15 14 13 12 12 12 11 10 10 10 10 11 12 12 12 11 10 10 9 10 11 11 11 10 11 11 11 11 11 10 10 9 10 9 9 10 10
4 3 3 2 3 1 2 2 6 5 4 4 6 8 9 8 5 6 10 10 9 7 7 6 4 4 4 10 10 9 13 16 17 19 23 22 20 18 16 15 14 14 14 13 13 12 11 11 11 10 10 10 11 12 12 13 13 14 14 15 15 14 14 13 12 12 11 10 10 10 10 11 11 11 11 11 10 10 10 10 11 11 10 10 11 11 11 11 10 10 10 10 10 10 10 9 9
6 5 3 2 3 1 2 3 5 4 3 5 10 11 10 7 5 6 9 8 6 7 10 8 4 3 6 10 11 13 17 18 18 20 23 21 19 17 13 15 16 15 16 13 12 13 11 11 10 9 10 9 10 11 11 11 11 11 12 13 14 14 13 13 13 12 11 10 10 10 10 11 10 10 10 10 9 9 9 10 10 10 10 10 11 10 10 10 10 10 10 11 11 11 11 10 9
8 6 2 2 2 1 1 1 3 4 3 5 11 14 9 5 3 4 5 6 6 10 11 7 3 2 3 5 10 17 19 19 19 21 22 19 19 18 13 15 17 16 17 14 11 13 12 11 10 9 9 8 8 9 9 10 9 9 9 10 11 12 12 12 12 12 11 10 10 10 10 10 10 9 9 9 9 9 9 9 9 9 10 10 10 10 10 9 9 10 10 11 11 11 11 11 11
9 5 1 2 1 2 1 1 1 2 3 5 12 15 8 5 6 3 7 9 7 9 7 4 5 6 7 10 13 19 19 20 21 21 22 19 19 19 14 15 16 16 18 16 12 12 12 11 10 9 8 8 8 8 8 9 9 8 8 8 9 10 10 10 10 11 11 10 10 10 10 10 9 9 8 9 8 8 9 9 8 8 9 9 9 9 9 9 9 10 10 10 10 11 11 12 11
8 3 1 2 2 4 4 3 2 3 5 6 12 14 7 5 5 2 6 7 6 8 7 5 7 7 10 13 15 15 16 20 20 21 23 21 21 21 17 14 15 15 18 18 15 13 12 11 11 10 9 9 8 8 8 8 8 8 8 7 7 8 8 8 8 9 10 10 9 9 9 9 9 8 8 7 7 8 8 8 8 8 8 8 8 8 8 8 9 9 9 9 9 9 10 10 10
6 1 2 3 3 3 3 3 4 7 7 5 12 13 8 6 6 5 4 4 5 8 7 7 7 7 9 12 15 13 14 18 19 21 23 22 21 22 19 15 14 15 18 18 16 15 14 13 12 11 10 10 9 9 8 9 9 9 8 8 7 7 6 6 6 7 7 8 8 8 9 9 8 8 8 6 5 6 6 7 7 7 7 7 7 7 6 6 7 7 7 7 7 8 8 9 9
6 2 3 3 1 2 5 8 7 7 9 9 11 11 8 8 11 8 4 6 7 6 7 9 8 9 11 13 14 12 14 17 20 20 21 21 20 21 20 17 16 16 18 18 17 17 16 15 14 12 12 12 11 10 9 9 9 9 9 8 7 6 6 6 5 6 5 6 6 5 7 8 7 7 6 5 4 4 4 5 5 5 5 5 5 5 4 4 5 5 6 5 5 5 5 6 7
7 4 2 3 4 6 11 14 10 9 12 12 11 9 6 9 12 9 6 8 9 7 9 13 12 12 13 14 13 13 16 17 20 21 21 21 19 19 18 17 17 16 18 19 18 17 17 17 16 14 13 13 13 11 10 9 9 9 9 9 8 8 7 6 5 5 4 5 4 3 5 5 4 5 4 4 3 3 3 3 3 3 3 3 3 3 2 2 2 2 3 3 3 3 4 5 6
5 3 1 1 7 8 9 13 10 9 10 12 12 8 6 8 9 9 8 6 6 9 12 15 15 16 16 16 14 12 17 19 21 22 21 21 19 18 17 16 16 15 16 17 18 17 17 17 17 16 14 15 14 13 11 10 10 10 10 10 10 10 8 7 6 5 4 4 4 2 4 3 2 3 2 2 2 2 2 1 1 1 1 1 1 0 0 0 1 1 1 1 2 3 4 4 4
2 2 2 5 7 7 5 10 10 8 7 11 13 7 8 8 7 9 9 3 3 4 9 13 14 16 16 15 14 12 16 20 22 23 23 22 20 19 17 16 15 15 16 16 16 16 17 17 17 18 17 16 16 14 13 12 11 10 10 9 9 10 9 9 7 7 6 5 5 4 4 4 3 2 1 1 1 2 2 2 2 2 2 2 2 2 2 3 3 3 3 3 4 5 5 4 4
3 2 4 7 8 9 5 8 10 8 7 9 10 8 11 9 6 10 10 3 5 5 7 11 9 10 13 14 13 12 14 18 21 23 23 22 21 20 18 17 16 17 18 16 14 15 16 16 17 18 18 17 17 16 15 14 13 11 11 10 9 9 9 9 9 8 8 7 7 6 5 5 5 4 3 3 3 3 2 3 3 3 3 3 4 5 4 4 5 5 5 5 6 6 6 6 6
6 2 5 5 10 11 7 9 11 10 7 7 8 8 10 8 5 9 10 5 5 2 4 7 7 8 11 12 11 11 11 13 17 20 22 21 21 20 18 18 17 17 18 17 15 15 16 17 17 18 18 17 18 18 17 16 14 13 13 12 12 10 9 9 9 9 8 9 9 9 8 7 7 7 6 6 6 5 5 5 5 5 5 5 5 7 6 6 7 7 7 8 8 8 8 8 8
8 3 8 7 9 10 9 10 11 11 8 6 7 6 6 5 4 6 9 8 8 7 5 6 8 10 11 10 9 10 11 12 14 18 22 21 20 19 19 18 17 18 19 19 19 18 17 18 18 17 17 18 18 19 19 17 16 15 15 15 14 13 12 10 10 9 9 9 10 11 10 9 9 9 8 7 7 8 7 7 7 7 7 7 7 8 9 8 9 9 9 10 10 10 10 10 10
10 6 11 10 9 11 10 10 10 9 7 8 7 4 4 3 2 4 9 10 11 10 9 8 9 11 12 11 11 10 12 13 13 16 19 21 21 21 21 19 18 18 18 19 20 21 21 20 18 17 18 18 18 18 18 18 17 16 16 15 14 14 13 12 11 10 11 11 11 11 11 11 11 10 10 10 9 10 10 9 9 10 9 10 9 10 10 10 10 11 11 11 12 12 12 12 12
13 9 12 12 11 11 9 9 10 8 7 9 6 5 5 2 2 3 8 13 13 11 10 11 11 10 11 12 12 12 12 13 13 14 16 21 22 22 23 23 22 18 16 17 18 20 22 21 19 18 19 19 18 18 18 18 18 17 16 16 15 14 13 13 13 12 12 12 12 11 11 12 12 12 12 12 11 12 12 12 11 12 12 12 12 12 12 12 12 13 13 13 13 14 14 14 14
15 14 12 9 9 9 8 9 11 8 6 8 3 4 6 3 2 5 10 15 14 13 11 12 12 12 11 12 12 13 14 13 14 15 16 19 21 22 24 25 25 21 18 19 19 18 20 22 21 20 21 20 19 19 18 18 18 18 17 17 16 14 14 14 14 14 14 13 13 13 12 12 13 14 14 14 14 14 14 14 14 14 14 14 14 14 14 14 14 15 15 15 15 15 15 15 15
16 15 7 4 6 5 7 8 10 7 4 8 4 2 3 3 9 12 12 14 14 14 12 12 13 13 13 13 14 14 15 15 16 17 17 16 17 19 22 23 24 24 23 22 21 20 19 21 22 21 21 22 21 20 19 19 18 18 17 17 16 15 15 14 15 15 16 15 15 15 15 13 13 14 15 16 16 16 16 16 16 16 15 15 16 15 16 16 16 17 17 17 16 17 17 17 18
10 9 4 4 3 3 8 8 8 6 5 10 5 0 4 7 15 16 13 14 13 13 13 13 12 13 15 15 16 16 16 17 18 18 17 16 15 16 19 20 21 23 25 24 23 23 21 21 21 21 21 21 21 21 21 21 19 19 18 17 17 16 17 16 16 15 16 16 17 17 17 16 15 15 16 17 18 18 18 19 18 18 17 17 18 18 18 18 18 19 19 19 19 19 20 19 20
6 5 3 5 3 3 7 9 9 5 4 10 6 1 5 3 7 14 15 14 13 13 12 12 12 12 16 17 18 18 18 19 18 17 16 16 16 15 17 19 20 22 23 25 25 24 22 22 22 20 20 19 20 20 22 22 20 20 19 19 18 18 18 18 18 18 17 17 18 19 19 18 17 17 17 18 20 20 19 20 20 20 18 19 20 20 20 20 21 21 20 21 20 20 21 21 22
4 4 4 4 4 3 4 8 11 6 4 10 6 2 6 0 6 11 14 13 12 12 12 13 13 13 16 18 19 19 19 19 18 16 16 17 18 17 17 18 20 21 21 22 23 23 22 22 22 21 20 19 19 19 20 21 21 21 20 20 19 19 19 19 19 19 19 18 19 20 20 20 19 19 19 20 21 22 21 21 22 22 20 20 22 21 21 22 22 22 20 19 19 18 19 20 21
4 4 4 4 5 4 2 4 8 7 6 8 6 3 3 2 5 9 11 12 11 11 11 12 14 14 15 17 18 19 19 19 19 19 18 18 19 19 18 18 19 19 19 19 20 20 21 21 21 21 19 19 18 18 18 19 20 21 21 20 20 20 20 19 18 19 20 20 19 20 20 21 20 20 21 22 23 23 23 23 23 23 22 22 23 21 19 19 20 20 19 18 18 18 19 20 20
4 4 3 4 5 5 4 2 5 8 7 6 7 4 4 3 7 10 10 12 12 10 10 11 12 13 14 15 16 17 19 20 21 21 20 19 19 20 19 18 19 18 18 19 18 18 19 19 20 19 18 18 18 18 17 17 18 19 20 20 20 20 20 19 19 19 20 20 20 20 20 20 19 20 21 22 23 24 25 26 25 24 24 23 23 21 19 18 18 18 18 18 19 20 20 20 21
3 5 4 4 6 7 6 2 4 9 5 4 7 6 9 5 6 11 12 13 14 13 12 11 12 12 13 15 15 16 18 20 21 21 20 20 19 19 20 19 19 19 19 19 18 18 19 19 19 18 18 18 17 18 17 16 16 17 18 19 19 19 20 20 19 19 19 19 19 19 19 19 18 18 19 20 20 21 23 24 25 24 23 23 22 22 20 18 17 18 19 20 22 22 22 22 23
5 5 4 4 5 5 4 1 3 7 4 4 7 7 9 8 7 11 15 16 16 15 14 13 13 13 14 15 16 16 17 18 18 18 19 20 20 19 20 20 20 20 20 20 20 20 20 20 21 20 19 19 18 18 18 18 18 17 18 19 20 20 19 19 19 19 18 18 18 18 19 19 18 18 18 17 18 19 19 20 21 20 19 20 22 24 22 20 19 20 21 23 25 25 24 25 26
7 7 5 3 3 2 3 2 1 0 2 6 8 7 7 8 8 9 16 18 15 15 15 15 15 15 16 16 16 17 17 17 15 16 18 19 20 20 20 21 21 22 22 22 22 22 21 21 22 21 20 20 20 20 20 20 20 19 19 19 19 19 19 19 18 18 18 18 18 18 18 19 19 19 18 18 19 19 18 18 18 18 18 18 21 24 25 24 24 25 26 26 28 28 27 27 29
5 8 6 4 4 2 2 2 1 2 1 5 7 8 9 8 7 8 11 14 13 17 17 17 18 18 18 18 18 17 16 16 16 17 19 20 20 21 21 22 23 24 24 24 24 23 23 22 23 22 21 21 22 22 22 21 21 20 20 19 18 17 17 18 18 18 18 17 17 17 18 18 19 20 21 22 22 20 19 21 21 20 19 19 22 26 27 27 28 28 29 28 29 28 27 29 31
1 4 5 4 3 3 2 3 1 2 1 1 1 3 7 7 6 9 11 12 14 19 20 19 20 20 21 20 19 19 17 17 18 19 20 20 20 20 21 23 24 25 25 25 25 24 24 23 24 24 24 23 23 23 23 22 22 21 21 20 18 17 17 17 17 17 17 17 17 17 17 17 18 20 22 23 22 19 19 24 25 23 21 21 25 29 29 28 26 25 25 25 26 27 28 29 30
1 2 4 4 4 4 1 1 1 2 1 1 3 3 5 6 6 8 14 18 17 19 20 19 20 21 22 21 20 20 20 20 20 20 20 21 21 20 21 23 25 26 26 26 26 26 26 25 25 25 25 25 24 24 24 23 22 22 21 20 19 19 19 20 20 18 17 17 16 15 15 16 17 19 20 20 19 18 18 21 22 21 20 22 26 28 28 26 22 21 23 25 26 27 28 27 26
3 2 2 3 5 4 2 3 2 2 1 1 2 4 5 6 8 9 12 18 18 18 19 18 20 21 20 20 20 19 20 21 20 19 20 21 21 20 20 21 24 26 28 28 28 28 27 27 26 26 26 26 25 24 24 23 23 23 22 21 22 23 22 22 21 20 18 17 15 14 14 16 17 17 18 18 17 17 18 20 20 20 20 22 24 25 26 25 23 24 25 28 29 28 28 27 26
3 2 1 2 6 7 6 6 4 3 1 2 2 1 6 5 8 10 7 9 12 14 15 17 20 21 21 22 22 20 21 21 20 19 19 19 20 20 19 21 22 24 26 27 28 28 28 28 28 27 27 26 26 25 24 24 25 25 24 24 24 24 23 22 21 21 19 15 14 14 15 17 18 18 18 18 17 18 19 20 21 22 21 22 23 24 26 29 29 27 24 25 27 27 29 30 30
3 3 1 2 8 9 8 7 4 3 2 2 2 3 5 4 4 7 5 6 7 8 9 14 18 19 22 25 25 24 24 23 23 23 22 21 21 22 22 22 22 23 24 25 26 27 27 28 27 27 27 27 26 26 25 25 25 25 25 25 25 24 23 22 21 20 17 14 14 15 16 17 19 20 20 20 19 18 19 21 22 22 20 21 23 24 28 30 28 25 24 25 26 27 29 31 32
3 3 3 5 9 8 7 6 3 2 2 2 2 2 2 4 5 4 5 5 5 6 7 11 16 19 21 21 22 23 24 25 26 26 25 24 24 24 24 24 24 25 25 26 26 26 27 27 27 27 27 27 26 26 25 24 24 25 25 24 24 23 23 22 20 18 15 14 15 16 17 18 18 19 18 18 18 17 18 20 21 20 20 22 24 25 26 26 25 23 24 26 27 27 29 29 29
2 2 3 2 6 6 7 5 2 2 3 1 3 1 0 4 6 2 3 3 5 7 8 10 14 18 17 16 16 18 20 22 23 24 24 24 25 25 25 26 27 28 28 29 28 28 28 28 28 27 27 27 26 25 25 25 24 24 24 23 23 23 22 20 18 17 16 16 17 17 17 17 17 17 17 17 17 18 19 20 20 20 20 21 22 23 23 23 24 24 24 25 26 28 28 27 29
4 3 3 5 4 4 4 4 3 3 1 3 5 5 2 4 5 3 2 3 6 8 7 8 13 16 14 14 14 15 16 17 18 20 21 22 24 24 25 27 28 29 30 31 31 31 31 30 29 28 27 26 26 25 25 25 24 23 23 22 21 20 18 17 17 17 17 16 16 15 15 15 16 16 16 17 17 17 19 20 22 22 22 22 21 22 23 23 23 23 24 25 27 29 29 30 32
7 4 5 6 5 5 3 1 4 3 2 3 4 5 3 3 5 5 4 4 4 5 3 5 10 13 12 11 11 11 12 13 14 16 18 21 22 22 22 24 26 27 28 29 30 31 31 31 30 28 27 26 25 25 24 24 22 21 20 18 17 16 15 16 16 15 14 13 13 12 12 12 13 14 14 15 15 15 16 17 20 21 23 24 24 25 26 25 24 23 24 27 29 32 31 31 32
5 3 5 5 4 4 4 3 2 1 3 3 3 2 1 3 5 3 3 3 2 3 4 6 8 10 11 9 8 9 10 10 11 13 16 18 19 19 19 21 22 22 23 24 25 26 27 28 28 26 26 26 25 23 22 21 19 17 16 14 14 15 15 14 13 11 10 9 9 9 8 9 9 10 10 11 11 12 13 14 15 17 19 21 23 25 26 27 27 28 28 29 30 31 29 29 30
0 3 7 5 1 1 1 1 1 2 3 3 2 3 1 5 6 6 6 5 5 3 4 9 12 12 9 8 8 8 9 9 9 11 13 14 15 16 17 18 19 19 19 19 19 20 21 23 24 24 23 22 20 19 18 17 16 15 14 14 14 13 12 11 9 7 6 5 5 5 5 5 6 7 8 9 9 10 10 11 12 13 15 16 18 20 22 24 26 27 28 29 29 30 30 31 33
3 5 6 5 4 2 2 3 2 3 3 4 4 1 2 4 5 9 11 8 7 7 8 12 14 12 9 8 8 8 8 9 9 10 11 11 12 13 15 16 16 16 15 14 14 16 17 19 19 18 17 16 15 15 14 14 15 14 13 13 12 11 10 8 6 5 4 4 3 3 4 4 6 7 8 9 10 11 11 11 11 12 12 13 15 16 17 19 21 22 23 25 26 28 30 32 33
5 4 5 4 4 4 4 4 3 3 1 3 3 1 3 3 3 6 5 2 7 10 11 12 12 10 9 8 8 7 8 9 9 10 10 11 11 12 13 14 14 13 13 13 14 14 15 16 15 15 15 15 15 14 14 14 14 14 13 12 11 10 9 8 6 5 4 3 2 3 4 5 6 7 8 8 9 10 11 12 13 13 13 14 14 14 15 16 17 19 20 22 23 25 27 29 30
3 2 4 3 4 4 3 2 3 4 2 1 2 2 4 4 3 4 4 6 9 10 10 11 10 9 9 9 9 8 8 9 10 10 11 11 12 12 13 14 14 14 14 15 15 16 16 17 18 18 18 17 17 16 15 15 15 14 13 12 11 10 9 7 6 4 3 3 3 4 4 5 6 6 7 8 8 9 10 11 12 12 13 14 14 15 15 15 15 16 17 19 20 21 23 24 25
1 2 3 4 3 6 5 1 0 3 1 2 3 3 5 3 4 4 6 5 5 7 7 9 10 10 10 11 11 10 10 10 10 11 12 13 13 14 15 15 16 16 16 17 17 18 18 18 19 19 19 18 17 16 16 15 15 14 13 12 10 9 8 6 5 4 4 4 4 4 4 4 5 6 7 7 8 9 10 10 11 11 11 12 13 14 15 16 16 16 16 16 17 18 20 21 22
3 3 4 2 1 3 3 1 1 2 2 2 4 5 4 2 3 1 5 5 5 6 7 8 10 11 13 14 13 12 12 12 12 12 13 14 14 15 16 16 17 17 18 18 19 19 19 19 19 18 18 18 17 17 16 15 14 13 12 11 10 8 7 6 5 5 4 4 3 3 3 3 4 5 6 7 7 8 9 9 10 10 11 11 12 13 14 15 15 16 16 16 17 17 18 19 20
3 2 1 2 1 1 2 3 2 2 2 3 3 6 5 4 4 2 4 8 8 7 8 8 10 14 15 15 15 14 15 15 14 14 14 15 16 16 17 17 18 19 19 19 19 19 19 19 19 18 18 18 17 17 16 15 13 12 12 11 9 8 7 6 5 5 4 3 2 1 1 2 3 4 5 6 7 7 8 9 10 11 11 12 13 13 14 14 15 16 16 17 17 18 19 19 20
1 2 2 2 2 2 3 3 3 3 3 3 3 3 4 5 6 6 8 10 9 9 8 8 12 17 19 18 18 17 17 17 16 16 17 17 17 18 18 19 20 20 20 20 20 20 19 19 19 18 18 17 16 16 15 14 13 12 11 10 9 8 7 6 5 4 3 2 1 1 1 2 3 4 5 6 7 8 8 9 11 11 12 13 13 14 15 15 16 17 17 18 19 19 20 20 20
2 1 2 2 1 2 1 2 2 3 3 3 3 3 5 5 5 7 8 7 7 10 9 8 14 19 20 20 20 19 19 19 19 19 19 19 20 20 20 21 21 21 21 21 21 20 19 19 18 18 17 16 16 15 14 14 13 12 11 10 9 8 7 6 5 5 4 3 2 2 2 2 3 4 5 6 7 8 9 10 11 11 12 13 13 14 15 16 17 17 18 19 20 21 21 22 23
5 3 5 5 4 3 1 3 3 2 2 3 3 3 6 5 2 2 3 3 1 6 11 11 15 20 20 21 21 20 20 21 21 21 21 21 22 22 22 23 22 22 22 21 20 19 19 18 18 17 17 16 15 15 14 13 13 12 11 10 9 8 8 7 6 6 5 4 3 2 2 2 3 4 5 7 7 8 9 10 11 11 12 13 14 15 16 17 18 19 19 20 21 22 23 24 24
Wind_Direction
188 195 120 127 235 278 282 262 261 234 227 240 123 108 74 84 104 107 110 141 101 63 60 62 52 36 23 348 74 73 43 32 49 66 122 135 136 137 155 168 164 159 148 133 132 119 107 88 73 68 70 73 86 101 107 122 123 114 113 107 103 103 97 97 93 91 94 92 90 78 59 56 57 53 58 58 59 66 67 74 79 78 78 75 72 71 71 73 76 79 83 89 99 101 90 82 77
204 198 125 137 269 289 288 227 245 257 211 148 72 86 106 119 136 125 118 101 91 89 83 73 63 40 34 108 75 68 48 52 85 100 118 133 137 143 151 154 155 153 144 137 133 120 108 89 74 69 72 73 84 100 111 125 129 122 117 110 109 106 100 98 93 94 90 82 76 54 49 63 65 61 66 62 65 72 68 73 81 79 78 76 73 73 73 74 78 78 80 84 88 88 85 85 85
195 186 132 218 289 272 278 231 222 273 225 113 80 112 136 131 105 98 89 86 95 101 93 82 89 30 354 53 64 71 72 72 94 108 120 134 136 138 142 144 148 149 146 138 130 119 107 93 78 72 75 75 81 94 109 122 129 126 118 117 119 110 103 100 94 92 82 67 57 44 45 62 68 62 64 69 76 76 68 75 84 83 79 75 72 75 74 75 80 82 82 83 85 86 86 87 88
173 161 143 244 288 256 259 238 235 283 326 110 119 153 147 111 92 82 86 94 102 107 106 110 111 43 11 31 58 80 89 84 102 113 124 139 137 137 144 144 144 146 144 135 132 125 110 97 85 77 78 79 82 88 100 110 116 119 117 124 128 117 109 104 100 96 80 67 59 58 54 59 63 65 71 77 82 76 69 75 84 87 82 74 70 73 74 76 81 88 88 86 87 86 85 84 86
162 158 161 231 282 268 277 288 268 299 344 89 121 147 133 103 101 96 92 94 102 109 115 134 112 86 58 34 43 81 92 97 110 115 129 147 144 142 149 144 140 143 140 139 138 129 117 103 90 83 80 81 84 85 90 98 104 114 120 132 138 127 116 109 109 107 80 64 58 55 54 58 66 78 78 79 81 76 74 76 80 84 81 74 71 72 75 76 81 89 90 89 88 86 84 84 84
153 151 195 246 269 289 312 275 257 121 4 8 102 131 115 103 108 103 98 92 92 110 117 118 92 101 92 64 73 98 107 112 118 128 141 149 151 149 150 140 135 141 140 143 139 130 120 108 96 87 82 82 83 84 85 90 93 101 111 130 144 138 124 114 114 117 77 55 52 53 58 67 77 86 80 80 84 80 78 78 80 80 76 73 70 71 74 76 81 87 88 87 88 86 85 84 82
152 172 223 246 253 263 273 260 261 103 3 3 78 112 100 104 115 111 109 103 90 122 128 92 98 105 110 108 95 102 114 121 137 153 150 151 156 151 144 137 134 141 144 144 139 135 123 114 103 90 85 82 81 83 83 86 84 84 96 116 137 146 140 127 120 104 69 57 63 69 71 78 85 88 84 83 83 83 81 80 83 81 76 74 72 72 72 74 78 85 87 86 87 85 84 83 82
150 213 231 242 246 211 259 262 270 92 10 11 46 58 103 116 125 125 135 137 135 144 143 126 150 275 116 115 97 122 128 130 160 169 155 155 156 145 137 138 141 143 148 149 143 140 130 123 109 95 89 84 82 82 84 87 83 84 92 102 116 135 147 146 137 96 77 74 75 76 76 82 87 85 84 86 86 87 87 86 86 84 82 78 78 76 74 75 77 82 86 87 87 86 84 84 84
173 232 248 240 235 168 253 264 135 96 100 85 61 65 108 130 133 132 133 122 133 142 146 159 179 271 109 103 99 143 141 140 173 162 154 159 156 144 138 143 150 150 152 152 148 144 134 130 117 103 96 89 86 83 84 88 87 87 91 97 103 110 120 127 123 102 91 86 80 79 81 85 87 88 87 87 92 95 92 92 90 88 85 81 80 78 77 77 76 79 82 85 87 87 87 87 88
230 231 251 259 261 182 220 255 94 94 91 86 98 99 113 137 140 139 128 112 129 130 134 149 142 342 108 107 109 142 149 156 174 156 156 162 157 146 137 150 164 156 156 155 153 148 138 135 124 111 103 96 91 87 85 88 91 92 93 97 101 103 102 101 99 94 92 90 87 84 83 83 86 93 94 92 98 98 92 93 95 93 88 81 79 77 76 75 76 78 79 83 85 89 90 91 91
235 220 241 265 257 214 213 193 115 106 105 89 99 114 122 139 148 144 123 114 131 119 127 154 142 177 118 107 116 143 157 165 171 159 159 162 157 146 139 161 175 159 159 160 158 153 145 141 134 124 114 107 99 94 89 89 94 96 97 99 101 104 102 97 91 86 87 88 87 83 79 80 84 91 94 96 100 98 94 96 98 95 89 81 76 75 74 74 75 75 76 79 83 86 90 93 93
230 209 217 236 234 224 247 137 114 105 114 118 114 133 142 143 159 146 121 120 138 126 147 178 143 177 145 100 124 156 157 158 171 165 161 161 152 144 149 166 169 162 163 161 160 158 154 149 143 138 128 119 108 101 95 92 95 98 99 100 100 100 98 94 87 83 84 84 83 80 78 81 88 91 91 93 93 91 90 94 96 93 87 80 77 77 76 75 73 73 75 77 79 81 85 90 93
227 232 196 240 257 246 322 67 102 109 127 143 132 146 151 151 172 145 128 132 150 144 151 166 143 174 113 101 134 149 147 155 171 169 160 154 145 147 160 161 160 172 169 159 162 160 160 157 149 148 141 133 121 112 104 99 99 99 100 100 98 96 94 92 88 86 86 88 87 84 83 87 95 95 92 92 90 87 83 87 94 92 87 84 82 79 76 74 73 75 75 77 78 79 82 84 89
230 266 210 240 279 353 353 72 116 137 135 123 125 146 153 156 173 137 136 133 139 136 134 156 168 166 111 113 147 148 149 162 172 170 160 151 148 153 165 162 165 181 168 158 166 162 165 162 157 158 152 147 137 127 117 111 107 103 103 103 100 98 95 93 91 93 94 95 92 89 88 90 98 101 99 96 95 93 86 87 93 94 91 90 86 80 77 75 75 77 77 78 78 79 79 80 82
231 284 251 247 295 39 6 80 142 151 118 110 132 150 147 130 140 106 113 100 100 128 134 169 176 134 109 107 163 164 159 168 173 169 159 154 156 153 169 173 172 182 165 159 171 166 171 170 165 166 160 157 151 142 133 127 121 114 112 110 106 103 100 97 94 94 97 97 93 91 90 91 97 103 105 102 101 99 95 93 92 95 96 95 90 84 80 77 77 78 80 80 79 79 78 77 75
226 289 304 249 258 153 200 185 86 107 117 127 144 149 136 119 148 88 75 92 115 137 126 158 137 100 86 97 153 174 168 171 178 170 156 158 162 156 172 183 179 181 164 163 175 173 178 177 172 172 171 167 163 159 152 147 140 133 128 122 118 113 108 104 100 96 94 94 93 91 88 88 92 98 104 106 107 104 102 100 94 96 99 98 94 88 83 80 80 79 81 81 79 78 75 75 71
218 281 280 233 232 164 176 181 122 122 115 125 151 151 135 128 162 127 92 106 123 134 114 124 144 125 107 117 151 173 173 176 181 171 161 165 169 165 169 181 185 182 168 167 174 178 184 183 181 181 183 179 177 175 170 171 164 156 150 141 136 128 122 115 109 102 95 93 92 90 90 90 92 96 100 103 107 105 105 105 102 101 101 100 95 92 88 82 81 80 81 80 78 75 73 72 69
202 265 203 213 221 186 172 146 113 133 133 136 159 161 150 143 166 162 141 138 124 133 141 144 151 148 131 139 159 172 178 180 182 177 172 173 174 172 169 175 187 184 175 174 176 181 186 188 188 189 192 187 189 190 178 182 183 176 170 161 155 148 140 132 124 113 103 99 93 94 96 90 90 96 96 97 99 101 106 108 108 108 104 102 98 96 94 88 85 83 81 79 76 74 73 72 66
200 240 207 230 201 56 53 76 64 101 138 147 158 177 171 152 163 165 170 171 160 158 163 158 152 154 150 159 175 181 182 182 184 185 184 182 179 179 175 176 186 188 182 180 182 184 187 191 189 191 199 194 196 201 189 188 196 194 186 179 173 171 164 158 149 132 124 111 100 97 92 80 81 90 92 97 101 100 103 109 112 115 112 110 108 107 104 94 86 82 81 76 72 70 68 70 64
216 236 213 231 127 71 54 78 65 77 129 145 151 179 156 136 154 165 195 177 173 192 175 168 167 170 167 174 189 189 186 186 184 186 190 190 185 184 183 182 186 189 188 185 186 188 189 192 189 191 202 199 199 206 202 197 205 210 201 193 189 189 185 182 176 157 151 131 121 112 97 87 81 88 95 107 110 108 104 109 115 121 123 117 118 121 114 93 79 70 73 69 51 34 27 45 44
212 223 225 229 116 87 62 85 88 86 117 142 143 161 142 137 155 168 203 179 175 214 195 185 187 189 182 179 192 193 186 185 183 186 193 194 191 190 187 186 189 188 193 191 188 191 193 195 191 191 202 201 200 208 211 208 211 219 214 206 200 199 198 196 195 183 181 164 165 162 124 135 135 103 111 116 119 144 143 140 140 142 155 143 143 201 201 237 286 315 359 357 327 333 353 21 15
197 178 44 24 84 93 87 101 109 102 103 129 138 159 151 147 163 178 209 195 138 192 175 176 186 196 194 184 190 193 187 186 185 188 195 198 196 196 189 188 192 187 198 203 194 195 197 200 198 195 201 201 201 207 213 216 216 224 225 219 211 207 204 202 207 200 197 198 200 200 164 170 197 189 193 194 179 192 193 205 221 222 218 225 250 256 246 258 274 282 292 294 295 307 328 344 336
223 158 75 35 83 111 116 116 121 120 110 125 141 158 151 153 176 191 217 200 109 112 135 151 161 184 193 189 190 193 193 192 193 194 198 201 200 201 194 190 197 194 201 210 204 202 199 202 206 203 205 205 204 207 212 218 220 226 226 224 225 222 215 210 214 213 208 209 213 218 203 197 218 223 230 247 249 245 247 245 250 256 250 251 260 263 261 264 277 284 287 288 293 302 309 311 311
232 174 124 75 94 115 125 131 133 133 128 129 144 148 153 173 179 187 218 207 149 146 151 155 153 166 182 187 192 202 206 200 201 201 200 202 203 205 200 194 203 204 205 210 205 207 206 205 210 211 211 211 210 211 215 219 220 224 223 225 229 227 227 223 220 219 217 219 217 221 223 217 225 235 235 245 259 263 265 266 267 273 273 271 270 275 279 276 278 281 283 285 289 294 293 294 297
237 178 136 122 102 120 123 131 140 141 142 136 146 145 149 176 159 183 219 206 199 216 200 170 158 163 180 196 200 205 213 208 206 204 199 200 201 201 198 194 205 212 210 212 207 208 214 213 215 215 214 217 216 215 218 220 221 224 226 231 233 228 229 232 229 223 220 228 225 220 227 230 230 238 241 242 252 258 260 264 268 271 273 274 273 275 279 279 279 280 281 284 285 287 287 288 290
224 179 141 135 115 129 122 125 139 141 149 144 153 144 123 173 167 227 226 195 198 209 202 189 170 167 180 199 207 207 211 211 210 209 204 202 200 199 197 192 202 216 218 218 215 214 221 224 222 220 220 222 221 219 219 221 224 226 230 235 238 234 231 232 237 235 226 230 234 226 226 233 238 241 244 245 247 253 257 259 263 266 268 271 272 273 275 276 278 279 280 282 283 284 286 286 287
198 155 122 129 123 136 131 126 139 134 139 151 164 137 121 179 170 247 211 184 195 201 198 199 195 189 185 194 204 207 211 214 215 212 209 206 203 202 202 198 198 208 219 222 223 220 224 230 228 223 225 226 224 225 223 225 228 231 235 239 242 243 237 233 236 242 239 237 242 241 231 230 238 244 246 248 248 252 257 258 261 263 265 268 270 273 274 275 276 279 281 282 284 284 285 285 286
159 128 100 122 123 130 137 131 146 139 136 164 163 115 119 115 168 225 188 180 197 198 200 208 205 202 195 195 199 204 209 213 216 212 213 212 210 208 208 209 203 201 210 220 227 225 223 229 231 226 226 228 227 228 227 229 231 233 237 240 245 248 245 240 237 241 247 249 248 250 248 236 236 243 248 251 252 253 255 258 259 261 264 265 267 269 271 275 276 278 280 281 284 284 285 285 286
143 136 106 136 130 135 157 144 160 159 150 169 142 90 152 175 220 221 193 187 196 193 202 211 210 203 195 197 199 205 207 208 213 215 220 222 221 219 217 221 216 208 209 216 224 226 224 229 233 231 230 229 229 230 231 233 234 235 238 241 246 247 248 248 244 242 246 251 252 251 255 251 243 244 247 252 255 256 257 258 259 260 264 265 265 264 266 272 274 275 277 279 281 282 285 286 286
155 165 132 143 157 190 171 148 161 156 148 171 156 264 215 226 222 208 191 191 185 179 190 202 212 203 193 195 199 206 207 207 216 220 225 228 227 227 223 225 224 219 216 216 221 225 226 231 236 236 234 232 231 232 233 236 238 238 240 243 247 248 249 252 252 250 247 248 252 253 254 254 252 249 248 252 255 256 257 260 262 261 263 265 266 266 266 269 269 270 272 274 277 279 282 283 283
171 195 166 157 167 192 169 150 157 142 151 178 161 250 248 258 190 178 183 191 182 179 186 196 208 201 194 196 200 207 210 213 222 225 226 228 228 228 225 224 224 225 223 220 223 228 229 233 239 240 238 238 236 235 235 237 239 240 243 244 248 250 251 253 255 257 255 252 252 254 256 255 254 253 252 253 255 257 258 260 264 264 263 265 266 267 268 268 268 269 271 273 275 277 279 280 280
184 187 190 187 160 157 164 165 172 157 168 190 170 224 251 233 129 162 180 186 189 195 201 202 202 199 199 201 205 210 214 218 223 226 226 225 226 227 223 223 224 226 227 226 228 231 231 232 239 242 241 242 242 240 239 239 239 241 244 245 249 252 253 254 255 256 258 258 254 254 256 256 255 255 254 255 257 261 262 261 264 266 266 264 264 266 267 267 267 268 270 273 276 279 281 279 278
209 179 180 188 168 155 164 206 202 158 137 198 213 234 243 175 158 178 183 191 198 205 216 213 201 197 201 206 212 213 214 219 221 222 225 224 224 226 225 222 223 226 226 229 229 230 232 232 237 241 242 243 245 246 243 239 238 240 244 247 249 251 253 255 255 255 256 258 259 258 257 256 256 255 255 256 257 260 262 262 263 264 265 265 267 268 265 263 262 264 267 269 272 278 284 284 279
204 178 190 191 175 166 157 236 228 166 144 197 215 239 247 193 172 182 187 194 195 202 218 219 208 202 203 207 213 215 214 219 221 221 223 226 225 225 225 223 223 225 224 226 227 227 229 231 235 238 240 241 242 245 244 241 238 239 242 245 248 249 251 254 255 255 255 256 259 262 263 262 261 259 258 258 256 256 258 261 262 262 261 263 266 267 264 259 256 258 263 267 269 274 281 285 284
186 177 191 189 192 190 173 185 189 173 186 205 184 222 246 225 182 186 185 182 184 195 207 214 216 212 209 209 211 214 215 219 225 224 223 227 228 226 226 224 224 225 224 224 225 225 225 229 232 232 235 237 238 242 244 244 242 241 241 242 244 245 247 251 254 256 257 258 259 262 265 266 266 265 264 263 261 259 259 262 264 263 260 259 262 264 264 260 257 259 263 267 271 275 280 282 282
181 189 208 186 190 194 156 118 167 161 179 210 190 210 235 234 217 196 189 188 190 194 198 205 212 214 213 212 213 215 216 220 226 227 227 228 228 228 227 226 226 227 227 226 226 227 226 228 231 230 231 235 237 239 241 243 244 244 243 241 243 245 247 249 252 255 257 261 264 265 266 268 270 271 271 268 264 263 263 262 262 262 260 258 261 265 266 264 263 267 270 273 275 276 280 283 281
179 184 232 199 140 132 86 66 295 182 159 210 219 223 237 235 231 214 194 191 195 193 193 201 205 209 211 213 217 219 221 221 219 221 226 228 228 227 226 226 226 228 228 228 229 230 229 231 234 234 232 235 238 238 240 243 245 247 248 248 248 249 250 250 253 255 256 260 264 265 266 269 270 270 271 268 263 263 264 263 260 257 257 257 261 269 273 272 270 271 275 278 280 278 278 281 281
191 175 206 203 153 143 51 61 289 342 72 210 222 229 248 242 238 245 208 188 193 196 197 205 210 213 214 215 219 222 223 221 214 214 220 226 230 229 229 228 226 227 228 229 230 231 232 234 237 239 238 238 240 241 242 245 248 251 253 255 256 255 254 255 258 259 259 261 263 263 265 268 266 264 267 268 267 267 267 269 269 264 262 264 266 269 273 275 275 273 275 279 283 283 279 279 280
281 145 169 200 175 128 57 24 24 11 19 258 282 238 255 258 248 246 230 219 214 209 208 213 215 216 216 217 220 220 219 219 216 216 221 227 233 236 235 233 231 230 231 230 231 232 233 234 237 239 240 240 241 243 245 247 250 253 255 256 258 257 258 259 260 261 262 265 267 268 270 270 266 263 266 270 272 270 265 266 271 268 264 266 268 266 267 273 275 273 274 278 280 281 279 280 281
300 140 154 184 167 136 187 266 34 1 60 70 6 320 274 272 268 254 237 234 233 228 225 223 220 220 219 218 221 220 216 216 217 220 228 231 233 236 236 235 234 233 233 231 231 232 235 236 237 239 241 242 242 245 247 249 250 251 252 252 252 253 255 259 262 264 265 267 271 273 273 271 267 265 266 268 269 268 265 266 272 271 263 262 263 262 263 267 269 269 272 276 276 276 278 280 281
246 210 172 186 164 133 101 141 135 13 23 119 22 331 291 239 233 252 238 227 230 229 222 218 219 219 218 217 216 214 210 213 218 223 231 236 236 235 233 233 233 234 235 235 235 236 239 241 241 240 241 242 243 243 245 247 246 246 247 244 245 248 251 255 262 268 270 270 272 272 270 266 265 265 265 265 267 267 268 270 274 274 270 269 269 271 277 279 276 272 270 272 275 276 277 279 282
252 214 250 228 154 120 105 133 132 63 302 254 98 25 290 245 217 237 227 208 218 215 205 208 213 213 214 215 214 209 207 211 218 222 228 237 241 238 233 230 231 233 236 238 239 240 242 243 242 241 240 241 242 242 242 243 244 245 248 248 249 252 255 258 264 270 272 268 265 265 263 259 256 258 259 261 265 266 267 269 272 274 276 279 282 284 284 281 281 279 275 274 276 276 277 277 279
246 230 281 98 115 116 129 156 154 113 213 281 88 163 265 312 271 243 195 175 203 198 202 215 217 220 221 222 224 222 221 222 226 229 230 234 241 243 240 237 234 235 236 237 238 238 239 240 240 240 240 240 241 242 241 241 244 247 249 252 255 258 261 263 265 265 262 258 256 257 258 257 255 257 258 258 259 263 266 268 270 274 275 276 276 275 275 277 280 282 281 280 280 279 279 279 278
246 287 335 100 115 130 148 155 172 154 130 357 14 159 248 303 289 259 148 157 208 201 217 229 223 224 226 228 231 230 231 232 232 235 236 235 238 242 244 243 240 237 236 236 236 236 237 238 238 237 238 239 240 242 243 243 245 248 250 252 255 258 260 261 261 259 253 251 253 256 259 261 261 263 263 260 259 262 266 268 270 272 271 270 270 272 278 284 285 285 285 284 285 283 280 279 277
238 282 337 96 122 140 150 146 158 96 74 326 268 190 253 269 257 250 134 167 233 223 220 221 211 210 212 215 220 222 225 229 232 236 238 238 237 237 239 240 240 238 237 236 236 236 236 236 236 235 235 237 239 241 244 245 245 248 251 253 255 257 260 259 257 253 248 249 254 259 264 269 274 275 274 271 269 268 269 271 273 273 273 275 277 280 282 283 283 287 288 286 286 284 280 281 281
203 198 49 55 69 91 128 145 132 87 68 235 224 188 195 277 254 217 182 208 231 232 227 200 187 188 192 198 207 218 225 228 232 234 237 239 238 236 236 237 238 238 237 236 235 234 234 234 234 234 234 235 237 239 242 244 245 249 252 253 254 256 257 253 246 244 246 253 261 267 273 277 281 283 283 283 281 278 276 276 276 276 276 276 276 276 276 278 283 287 288 286 285 283 280 282 286
148 147 84 61 40 41 43 72 97 86 256 237 217 188 169 278 263 199 189 226 220 213 194 146 154 168 180 195 207 223 233 233 233 232 235 238 239 238 236 236 236 236 236 236 236 234 233 233 233 233 234 235 237 238 241 244 246 249 249 249 250 248 245 239 237 242 250 259 269 278 284 286 287 289 292 295 295 292 287 283 280 278 278 278 276 275 274 275 275 275 276 279 282 283 284 285 286
121 129 115 80 27 30 25 359 63 113 243 261 301 322 127 225 257 227 208 225 183 154 159 155 150 157 172 192 208 221 232 238 236 234 236 238 239 239 235 233 231 230 232 234 235 235 232 231 231 232 234 237 239 240 242 243 241 240 238 237 235 233 231 231 234 243 251 258 269 279 285 288 292 295 299 302 303 301 298 294 290 287 285 283 282 281 280 278 275 273 273 273 275 279 282 283 283
32 141 127 107 79 69 45 249 187 208 242 268 296 334 271 231 251 256 255 235 182 142 133 161 160 155 164 187 207 221 227 231 233 232 234 236 236 234 229 225 222 222 226 228 229 227 224 224 225 228 232 235 236 234 233 230 224 223 224 222 221 221 222 223 224 230 235 243 255 269 281 292 303 306 311 314 314 315 315 312 307 303 300 296 293 290 287 286 284 283 283 281 280 280 278 279 280
210 166 140 139 142 131 205 202 196 225 259 287 276 293 265 267 269 246 251 249 195 158 131 146 154 156 172 195 208 220 216 211 217 218 220 223 222 221 218 214 212 213 215 215 213 210 209 210 212 214 216 216 214 212 212 210 208 209 209 208 206 205 203 199 195 198 205 223 244 273 299 312 320 320 322 325 327 328 328 328 326 321 317 313 309 305 300 298 297 296 295 292 290 287 284 283 284
208 186 145 166 173 161 187 182 181 200 221 318 295 274 195 212 259 229 220 142 145 147 144 147 153 165 185 201 204 205 202 201 205 207 208 209 209 207 204 202 201 201 199 196 194 192 191 190 188 187 187 187 187 189 191 192 192 192 190 188 183 179 176 174 176 186 198 223 257 288 302 307 312 314 320 327 329 331 332 334 335 333 330 326 321 317 314 311 309 306 304 301 298 295 292 291 290
228 168 123 205 211 145 137 177 178 157 113 313 241 249 217 207 250 220 148 105 121 137 149 154 159 174 187 192 188 186 193 197 200 203 202 200 198 195 192 190 189 189 186 184 181 179 177 174 173 173 173 174 174 176 178 178 177 175 170 167 163 162 166 173 180 190 209 235 258 275 287 296 306 312 323 331 334 335 338 339 339 338 335 332 329 327 326 324 322 319 315 312 309 304 300 299 298
205 136 162 214 184 114 115 230 273 112 168 231 186 253 277 280 282 224 153 140 147 150 160 167 171 177 178 179 177 179 187 190 194 198 196 193 191 187 185 182 181 179 175 173 171 169 169 168 167 166 167 168 167 167 167 164 161 159 158 158 161 166 172 180 189 205 225 242 256 272 288 300 313 323 331 339 342 342 343 343 343 343 340 338 337 335 334 334 334 332 329 324 319 315 311 310 309
110 154 201 200 75 78 120 196 355 87 235 236 172 213 247 238 271 265 141 178 211 197 189 182 179 179 177 177 179 182 186 187 192 193 191 191 187 183 180 176 173 171 168 168 167 166 166 165 164 163 162 161 159 157 155 154 154 156 161 165 169 175 182 190 202 215 227 241 254 274 298 314 330 344 348 350 350 347 346 347 348 349 348 347 344 343 342 340 340 339 338 336 332 328 325 324 324
121 190 231 120 137 255 162 185 196 162 215 261 229 221 224 204 215 212 182 208 218 208 199 189 185 184 180 178 180 185 187 187 189 189 188 187 183 180 177 173 171 169 168 168 167 166 165 163 160 158 156 154 153 154 154 157 161 164 170 174 177 184 190 196 204 208 217 229 245 275 325 351 1 3 360 357 353 351 351 351 351 351 351 351 347 346 345 342 342 341 340 340 337 335 333 333 332
38 358 23 81 160 182 173 197 198 157 185 253 264 229 243 234 208 196 204 210 205 196 197 198 193 189 184 181 183 187 189 189 187 188 187 184 181 179 176 174 172 170 169 168 165 164 161 158 156 155 155 156 157 161 164 168 171 174 178 180 182 187 188 191 194 192 195 192 171 111 60 32 16 7 2 1 357 356 357 354 354 353 352 351 348 346 345 343 343 342 340 339 337 336 335 334 333
164 116 147 175 186 122 117 251 208 147 173 229 247 253 265 252 216 206 203 199 198 192 190 196 193 189 187 186 188 190 190 189 189 189 188 184 181 179 176 174 172 169 168 165 162 161 160 159 159 160 162 164 167 170 173 177 179 179 181 180 181 183 181 182 177 168 164 154 143 119 80 41 20 13 8 8 6 4 2 358 356 354 352 351 348 346 346 344 343 341 339 337 335 334 332 331 330
174 181 185 189 179 132 128 253 228 167 177 196 190 248 275 268 280 268 177 128 122 185 180 182 184 185 187 189 192 194 191 190 192 191 189 186 182 178 175 173 171 169 167 165 163 163 164 165 166 168 171 172 175 177 178 179 179 178 178 178 177 175 170 168 162 160 161 152 144 123 86 54 35 28 20 17 11 5 2 357 354 352 350 348 346 345 343 341 339 338 336 335 333 332 330 329 329